Voltar ao catálogo

COSMOS 2251 DEB

AtivoLEO
NORAD 33940·DEBRIS·🇷🇺 Russia

Lançado Jun 16, 1993 de Plesetsk Cosmodrome

Loading…

Próximas Passagens (próximas 24 horas)

TLE

AtualizadoSource: Space-Track

Época: Sep 14, 2026, 21:53 UTC

1 33940U 93036EV  26257.91244505  .00002397  00000-0  49547-3 0  9995
2 33940  74.0411 336.5937 0012381 339.9002 143.9248 14.60880265926249

Acompanhe COSMOS 2251 DEB em tempo real com AllMySat

Download on the App Store